Lapse_Rate
7.3 7.4 7.4 7.6 8.0 7.9 8.0 7.9 7.6 7.7 7.6 7.7 8.0 8.0 8.2 8.0 8.0 8.0 8.3 8.1 8.1 8.2 8.2 8.0 7.9 7.9 7.8 7.6 7.3 7.3 7.4 7.4 7.4 7.5 7.5 7.4 7.2 6.8 6.8 6.6 6.6 6.5 6.5
7.5 7.4 7.5 7.3 7.5 7.9 8.0 8.0 7.9 7.7 7.8 7.7 7.9 7.9 8.1 8.1 8.3 8.4 8.4 8.3 8.4 8.1 8.3 8.2 8.1 8.1 7.9 7.7 7.5 7.4 7.4 7.5 7.6 7.4 7.1 7.2 7.1 6.8 6.8 6.6 6.6 6.5 6.5
7.6 7.6 7.3 7.6 7.7 7.7 7.9 8.0 8.2 8.1 7.9 8.1 7.9 7.8 7.9 7.9 7.8 8.2 8.4 8.2 8.3 8.4 8.3 8.4 8.2 8.1 8.0 7.7 7.5 7.4 7.3 7.3 7.3 7.3 7.2 7.1 7.0 6.7 6.7 6.6 6.5 6.5 6.4
7.8 8.0 7.7 7.6 7.6 7.6 7.9 7.7 7.9 8.2 8.2 8.1 8.1 8.0 8.1 8.2 8.6 8.7 8.9 8.8 8.7 8.6 8.6 8.5 8.4 8.2 8.0 7.9 7.6 7.5 7.5 7.3 7.4 7.2 7.4 7.3 6.9 6.7 6.7 6.5 6.6 6.5 6.4
8.0 8.0 8.1 7.8 7.8 7.8 7.6 7.8 7.9 7.8 8.1 8.3 8.2 8.3 8.1 8.1 8.3 8.3 8.3 8.3 8.6 8.7 8.5 8.5 8.4 8.3 7.9 8.0 7.7 7.6 7.7 7.6 7.4 7.4 7.2 7.2 7.1 6.7 6.7 6.5 6.5 6.5 6.3
8.0 8.3 8.4 8.3 8.0 8.0 7.8 7.8 8.0 7.8 7.9 8.1 8.2 8.3 8.3 8.2 8.3 8.4 8.6 8.5 8.6 8.5 8.5 8.4 8.5 8.4 8.1 8.0 8.0 7.7 7.6 7.6 7.5 7.4 7.2 7.1 6.9 6.9 6.9 6.7 6.8 6.7 6.5
8.1 8.2 8.4 8.4 8.4 8.3 8.3 8.1 8.0 7.9 7.9 8.0 8.2 8.2 8.3 8.5 8.5 8.5 8.6 8.7 8.7 8.5 8.6 8.6 8.7 8.6 8.4 8.3 8.0 7.7 7.6 7.6 7.6 7.5 7.3 7.0 6.9 6.7 6.4 6.5 6.7 6.7 6.5
8.0 8.1 8.3 8.3 8.4 8.3 8.3 8.2 8.2 8.1 8.1 8.0 8.2 8.4 8.6 8.5 8.5 8.5 8.5 8.5 8.5 8.6 8.6 8.5 8.6 8.7 8.5 8.2 7.9 7.8 7.5 7.6 7.6 7.5 7.3 7.1 6.8 6.7 6.7 6.5 6.5 6.5 6.6
7.9 8.1 8.1 8.3 8.3 8.4 8.3 8.4 8.3 8.1 8.1 8.0 8.2 8.3 8.3 8.4 8.2 8.2 8.5 8.6 8.3 8.5 8.3 8.4 8.3 8.5 8.6 8.4 8.1 7.8 7.6 7.6 7.6 7.5 7.3 6.9 6.8 6.9 6.8 6.6 6.8 6.9 6.8
7.7 7.8 8.0 8.2 8.3 8.4 8.5 8.5 8.4 8.1 8.1 8.2 8.4 8.4 8.4 8.4 8.2 8.2 8.5 8.7 8.4 8.1 8.3 8.2 8.3 8.3 8.3 8.3 8.3 7.9 7.8 7.7 7.8 7.6 7.1 6.7 6.3 6.2 6.2 6.3 6.7 6.7 6.4
7.8 7.9 8.0 8.1 8.2 8.3 8.3 8.2 8.0 8.0 8.1 8.1 8.2 8.4 8.3 8.2 8.1 8.2 8.5 8.7 8.4 8.2 8.1 8.2 8.3 8.3 8.3 8.2 8.2 8.1 8.0 7.8 7.8 7.8 6.9 6.3 6.3 5.8 6.3 6.7 6.6 6.4 6.4
7.6 7.8 8.0 8.1 8.2 8.2 8.1 8.0 7.9 8.1 8.3 8.2 8.1 8.1 8.2 8.2 8.2 8.6 8.8 8.7 8.4 8.2 8.1 8.2 8.2 8.2 8.1 8.1 7.9 8.1 8.1 7.9 7.7 7.9 6.9 6.2 5.9 6.2 6.1 6.7 6.8 6.6 6.5
7.3 7.6 7.8 8.2 8.3 8.2 8.2 8.4 8.2 8.3 8.4 8.1 8.2 8.1 8.1 8.3 8.2 8.7 9.0 8.9 8.6 8.3 8.0 8.1 8.1 8.3 8.2 8.1 8.2 7.9 7.9 7.7 7.4 7.6 7.0 6.1 5.7 6.0 6.1 6.5 6.6 6.7 6.6
7.1 7.3 7.8 8.2 8.2 8.3 8.2 8.1 8.1 8.1 8.4 8.2 8.4 8.4 8.3 8.3 8.5 8.7 8.8 9.0 8.7 8.3 8.0 8.1 8.1 7.9 7.8 7.7 7.2 7.5 7.2 7.2 7.1 7.2 6.4 6.0 5.5 6.0 5.9 6.1 6.4 6.5 6.4
6.8 7.1 7.2 7.5 7.8 8.1 8.1 8.0 7.8 7.9 8.2 8.3 8.3 8.3 8.4 8.5 8.5 8.3 8.2 8.5 8.3 8.0 8.0 7.7 7.4 7.2 7.1 7.0 6.5 6.6 6.5 6.8 7.0 6.8 5.0 5.1 5.3 5.8 6.0 6.0 6.1 6.3 6.2
6.0 6.5 6.7 6.9 7.7 8.0 8.0 8.0 7.9 7.9 8.2 8.4 8.3 8.4 8.4 8.4 8.4 8.3 8.0 7.9 8.1 7.8 7.6 7.3 7.1 6.9 6.7 6.1 5.9 6.2 5.9 6.0 5.7 5.1 5.5 4.8 5.2 5.8 5.8 6.1 6.2 6.2 6.1
5.9 5.8 5.9 6.5 7.0 7.1 7.2 8.0 7.9 7.9 8.0 8.4 8.2 8.3 8.3 8.1 7.9 8.0 8.1 8.0 7.6 7.2 7.2 7.2 6.6 6.6 6.4 6.0 5.5 5.7 5.9 5.6 5.9 5.2 5.1 5.3 5.3 5.8 5.8 6.1 6.1 6.0 5.8
5.5 5.8 5.3 5.8 6.0 6.0 7.0 7.0 7.4 7.9 7.5 7.6 7.7 7.9 7.8 7.7 7.6 7.3 7.2 7.0 6.9 6.9 6.9 6.8 6.7 6.6 6.3 5.8 5.4 5.8 5.6 5.7 5.7 5.7 5.5 5.4 5.6 5.8 5.9 5.8 5.9 5.7 5.8
5.3 4.3 4.7 5.2 4.8 4.9 5.7 5.9 6.3 6.8 7.0 7.3 7.3 7.2 7.3 7.1 6.8 6.9 6.9 6.9 6.9 6.8 6.7 6.8 6.6 6.5 6.3 6.0 5.9 5.8 5.9 5.9 6.1 5.8 5.6 5.6 5.6 5.7 5.9 5.8 5.6 5.5 5.6
5.2 4.9 4.3 3.6 4.3 4.5 4.6 5.5 5.7 6.0 6.2 6.2 6.3 6.4 6.6 6.6 6.6 6.7 6.7 6.9 6.8 6.6 6.5 6.8 6.6 6.5 6.4 6.1 6.1 5.9 6.2 6.3 6.2 5.9 5.9 6.0 6.1 5.9 5.8 5.6 5.2 5.1 5.2
4.6 4.9 5.6 5.7 4.5 5.1 5.2 5.3 5.5 5.0 5.0 5.2 5.4 5.8 6.0 6.5 6.6 6.4 6.5 6.5 6.4 6.2 6.3 6.3 6.4 6.3 6.3 6.0 6.2 6.1 6.3 6.3 6.2 6.2 6.1 6.2 6.3 5.9 5.0 4.3 4.6 5.0 4.5
4.7 5.0 4.7 5.6 4.9 4.5 4.9 5.1 5.0 4.9 4.9 5.0 5.3 5.5 5.9 6.2 6.3 6.4 6.5 6.5 6.6 6.3 6.0 6.2 5.9 6.0 6.1 6.0 6.3 6.3 6.2 5.9 5.9 6.1 6.2 6.1 5.8 5.1 4.0 4.6 5.0 4.3 4.5
4.6 4.6 4.4 4.9 5.0 4.9 4.6 4.1 4.1 5.0 4.8 4.9 5.0 5.3 5.5 5.8 6.1 6.1 6.0 6.4 6.8 6.3 6.3 6.0 5.8 6.1 6.0 6.3 6.2 6.4 6.3 6.0 5.9 5.8 6.2 6.2 5.2 4.3 3.9 4.7 4.2 4.1 4.5
5.1 4.6 4.2 3.9 4.1 5.2 4.9 4.8 4.7 4.9 4.9 4.7 4.6 5.0 5.5 5.6 5.9 6.0 6.1 6.3 6.7 6.8 6.7 6.5 6.5 6.1 6.4 6.2 6.1 6.1 5.9 5.4 5.6 5.5 5.2 5.5 3.7 3.4 3.9 4.3 3.7 4.1 4.5
5.8 5.2 4.8 4.7 4.2 3.9 4.9 5.5 5.0 5.7 5.4 4.6 4.3 4.4 5.3 5.4 5.9 6.0 6.0 6.2 6.4 6.7 6.7 6.5 6.3 5.8 5.5 5.7 5.8 5.8 5.8 5.8 5.8 5.4 5.5 5.6 4.8 3.0 2.8 3.3 3.8 4.4 4.0
6.1 5.5 5.0 4.9 5.0 4.9 4.9 4.6 4.9 4.6 4.8 4.8 4.6 5.0 4.7 4.9 5.3 5.8 5.9 6.0 5.9 6.2 6.3 6.5 6.6 6.0 5.9 5.6 5.7 5.9 5.5 5.5 5.5 5.4 5.6 5.3 4.9 4.6 4.5 3.9 4.1 4.5 3.6
Wind_Speed
22 22 19 19 18 18 18 18 18 17 13 11 11 10 11 11 10 9 16 17 18 17 14 7 7 9 7 7 7 4 5 3 3 3 1 2 3 5 3 4 4 8 10
17 20 20 19 19 21 22 20 20 19 17 14 13 9 11 9 9 8 10 18 18 18 16 12 9 9 6 6 7 5 3 2 4 3 2 1 2 4 7 4 4 6 11
19 18 19 20 21 21 22 21 23 22 21 19 11 4 5 3 6 9 9 12 17 19 18 15 10 8 9 8 7 7 7 4 1 2 4 2 3 3 4 6 6 7 6
16 17 21 21 22 22 22 23 23 23 20 19 16 20 16 13 13 11 10 12 17 14 18 15 13 11 9 9 10 8 5 5 5 0 1 2 4 3 3 4 5 7 8
14 15 17 23 22 24 21 22 22 22 22 22 21 18 17 13 9 10 14 14 13 13 14 15 13 12 8 9 10 8 6 4 4 4 3 2 2 1 3 3 2 6 5
11 13 13 18 21 22 22 20 23 23 22 23 23 23 23 17 12 13 12 12 11 11 14 14 14 13 11 10 9 10 10 9 5 4 5 4 4 4 4 4 4 5 4
14 12 13 13 17 22 22 19 23 24 24 25 24 24 23 20 20 17 14 14 12 12 17 16 15 13 13 11 10 10 11 10 9 10 7 4 3 3 3 5 3 3 2
16 18 17 13 17 21 22 22 23 23 24 25 26 24 23 15 14 16 12 13 13 15 17 17 16 16 13 12 11 9 9 9 9 10 6 4 5 6 4 5 8 3 2
10 15 14 13 12 18 23 24 22 25 25 27 24 23 21 20 18 19 16 13 14 12 15 16 17 16 14 15 14 11 11 10 8 8 7 6 1 2 3 5 11 7 4
9 9 10 13 11 16 19 22 24 26 27 26 23 21 23 24 21 16 18 18 16 14 14 15 16 14 15 15 14 11 7 10 4 4 7 3 2 4 3 4 4 3 4
8 7 8 8 8 9 13 18 21 24 22 22 22 23 22 21 18 17 17 18 15 14 16 17 16 15 15 15 14 12 11 11 9 7 9 7 8 6 3 4 4 4 4
6 6 7 8 8 9 12 17 18 20 20 21 24 24 22 19 19 18 19 17 18 16 17 15 16 15 14 14 16 14 13 14 12 11 10 9 5 6 4 4 6 5 4
12 9 8 8 8 9 11 13 15 18 19 20 20 18 19 18 21 22 19 17 16 16 15 15 16 17 17 15 14 14 14 12 13 15 13 13 11 9 5 4 7 4 4
13 13 14 14 11 9 7 12 15 19 20 19 19 20 20 20 21 21 18 17 17 15 15 16 14 14 13 12 11 11 13 14 13 13 9 12 14 12 10 7 8 6 7
14 14 13 13 14 10 7 7 11 16 18 20 20 21 20 19 17 16 17 15 14 14 15 14 13 13 13 11 15 13 14 15 14 12 13 9 9 14 12 9 8 9 5
10 12 14 17 18 16 8 2 2 5 10 16 18 18 17 15 16 15 15 14 14 14 14 15 14 14 11 16 16 17 14 14 14 14 9 10 15 13 15 14 13 12 11
8 11 13 14 17 17 9 5 3 5 6 9 8 13 12 14 14 13 13 14 15 13 14 14 15 16 13 19 21 21 15 14 14 16 13 10 8 13 12 13 14 11 9
8 11 12 15 17 17 13 6 3 6 7 6 6 7 10 12 12 13 14 14 12 14 12 14 14 13 11 23 23 22 16 14 16 19 17 15 15 13 15 12 10 7 6
5 6 9 12 16 16 19 5 5 4 7 5 4 4 8 10 10 12 12 10 10 9 11 11 12 12 9 18 18 17 13 12 12 11 12 15 15 19 23 15 13 10 7
2 4 10 10 13 16 17 10 6 5 5 6 5 4 4 5 8 9 10 8 9 10 8 9 10 13 14 20 23 17 10 12 10 10 10 15 16 22 22 15 14 12 9
2 7 10 9 12 13 15 13 8 6 3 5 2 6 5 6 6 6 5 7 7 7 8 9 8 10 14 17 23 24 14 13 12 11 10 8 22 20 18 17 12 12 13
8 6 6 5 8 10 13 14 11 9 1 3 2 2 5 6 6 8 6 7 9 9 7 9 6 5 9 15 14 14 8 15 14 14 10 12 23 20 18 12 18 23 16
1 9 7 8 5 4 4 9 11 7 3 2 3 3 5 5 8 9 8 6 7 8 8 7 8 6 5 8 12 14 19 14 8 5 12 18 21 20 12 17 23 18 10
4 3 2 7 8 6 6 4 9 8 5 1 3 2 5 5 6 5 6 6 7 6 7 7 6 7 8 9 9 11 12 20 14 15 13 14 12 8 7 10 12 8 9
8 3 3 4 6 5 10 8 4 1 4 2 3 3 3 3 4 4 5 6 6 9 10 9 10 11 10 12 17 16 12 11 13 16 10 10 10 6 5 4 7 6 7
9 9 7 6 6 7 7 7 6 7 7 5 4 4 5 4 4 4 3 10 3 8 7 9 10 3 11 20 21 23 27 30 28 12 12 10 10 11 10 9 8 8 8
Wind_Direction
202 201 201 196 188 190 185 186 183 180 177 175 177 181 188 188 193 198 192 191 196 194 192 199 196 188 193 196 193 171 178 211 158 108 7 2 43 47 20 52 82 83 79
208 202 197 195 194 191 190 186 188 181 183 187 188 190 187 199 190 192 196 198 195 193 195 199 202 195 188 186 180 168 139 188 174 143 88 240 5 42 22 40 69 73 88
200 201 199 197 197 196 194 191 187 186 187 186 179 169 152 123 174 194 196 202 197 197 200 202 201 192 193 194 185 183 168 159 182 186 141 114 203 102 2 23 44 51 64
199 194 195 200 202 202 197 195 190 188 191 179 180 187 187 188 205 196 193 198 201 200 198 197 201 195 198 194 189 185 170 146 164 158 126 107 145 159 123 28 37 59 66
199 197 188 193 206 207 198 197 192 190 188 187 185 189 197 205 188 193 189 194 200 202 199 198 195 197 194 199 191 177 175 172 159 154 152 115 77 148 144 146 131 72 42
207 211 191 187 199 210 205 194 194 194 189 191 192 191 199 193 184 186 191 193 192 197 201 198 200 199 200 195 193 191 186 191 170 167 169 163 181 194 140 108 132 117 57
222 215 216 182 196 205 205 194 194 195 191 193 195 198 200 192 195 189 189 188 194 197 203 196 198 203 202 198 191 190 194 193 190 184 193 161 161 158 116 123 134 130 168
215 222 219 196 193 200 201 196 195 196 194 193 199 202 200 196 198 196 193 197 200 203 201 199 199 202 198 195 192 195 195 192 201 191 180 154 187 178 154 144 142 107 114
205 215 217 215 187 200 201 197 195 199 196 196 197 200 199 200 199 198 194 200 205 205 201 195 200 195 192 192 190 199 193 184 192 193 166 192 108 75 134 141 164 148 149
220 223 233 223 201 199 200 196 197 198 199 197 198 199 199 201 201 192 196 198 200 195 194 195 196 194 191 186 187 193 174 171 158 138 142 144 147 151 151 165 130 103 128
234 229 216 230 220 186 193 204 206 205 200 198 199 203 202 201 197 197 198 201 193 188 188 193 192 193 192 188 185 182 164 165 145 143 173 146 151 131 169 129 115 116 112
298 289 254 234 201 207 200 202 206 208 206 201 201 203 202 198 194 200 200 195 196 189 186 188 191 189 190 189 187 179 175 164 156 151 151 146 131 131 166 136 121 127 118
6 352 12 326 247 219 200 197 197 207 207 204 203 202 201 196 197 200 198 193 191 191 183 185 189 189 188 187 188 182 172 165 155 157 161 160 153 154 152 139 122 113 101
15 14 13 353 315 286 231 195 203 203 206 202 199 198 195 196 199 201 196 191 190 184 182 187 187 186 180 180 183 164 155 149 150 146 157 169 155 159 150 141 127 115 107
15 18 6 353 337 325 318 238 215 209 199 198 197 199 196 197 195 194 194 190 186 186 183 174 181 177 172 171 167 164 167 156 151 151 154 159 166 149 151 145 138 130 116
357 358 2 359 351 343 320 263 222 203 179 196 195 195 188 188 191 188 186 181 181 178 175 181 175 173 178 168 160 156 163 155 154 140 142 155 146 139 136 128 137 149 143
352 6 0 353 348 341 336 358 113 116 142 174 170 185 180 178 177 177 173 176 181 178 183 178 174 181 181 167 159 159 162 163 166 151 157 158 149 138 132 121 115 100 93
13 8 354 357 345 339 340 337 9 91 133 149 135 152 171 170 170 172 177 177 176 182 174 178 177 175 176 164 168 171 163 166 168 155 164 159 148 147 139 131 119 112 108
31 356 2 356 339 341 345 338 5 55 104 107 121 139 148 152 161 173 173 165 160 169 169 169 167 169 159 164 162 164 153 151 147 153 160 149 146 149 142 135 128 116 102
137 14 14 1 341 342 339 346 5 5 83 135 146 97 75 138 166 164 162 151 159 163 158 157 165 160 156 163 160 151 144 136 139 139 141 150 148 152 145 142 142 137 142
318 47 25 353 336 334 340 359 11 13 360 339 119 122 124 112 104 96 113 127 129 134 143 145 141 152 161 167 166 160 158 160 154 154 155 151 148 151 143 142 152 147 140
187 170 125 2 321 325 343 343 356 342 283 154 136 128 126 116 111 112 106 115 129 125 122 124 115 135 149 162 175 166 132 163 158 161 158 149 151 146 138 139 133 134 129
286 200 179 157 231 265 311 322 317 359 17 94 157 153 125 131 131 134 134 131 137 143 142 146 143 131 125 136 131 125 121 111 100 100 131 147 143 135 123 137 140 136 146
20 349 274 187 179 190 250 189 308 339 44 0 157 174 133 129 128 131 146 151 153 148 146 144 143 142 140 145 145 138 126 114 110 117 128 133 125 105 121 138 147 151 166
344 5 343 337 316 248 217 238 205 116 318 305 246 174 123 160 141 148 158 176 187 176 168 174 164 159 166 180 166 155 148 137 134 125 127 134 135 134 140 147 159 160 168
338 346 345 322 295 303 290 281 221 166 169 204 218 198 160 173 143 132 74 37 118 123 83 143 164 151 133 149 156 150 143 138 138 141 150 156 157 165 172 176 172 177 180